| time (UTC) | temp C | wind direction | speed KPH | gust KPH | rain 1hr cm | rain 24hr cm | rain mn cm | humidity % | barometer mb |
| 20260504050511 | 11 | 180 | 9.7 | 11.3 | 0.00 | 0.00 | 0.00 | 45 | 1003.5 |
| 20260504045517 | 11 | 180 | 9.7 | 11.3 | 0.00 | 0.00 | 0.00 | 45 | 1003.8 |
| 20260504044516 | 11 | 183 | 9.7 | 12.9 | 0.00 | 0.00 | 0.00 | 45 | 1003.8 |
| 20260504042517 | 11 | 180 | 8.0 | 11.3 | 0.00 | 0.00 | 0.00 | 45 | 1004.2 |
| 20260504041517 | 11 | 180 | 9.7 | 14.5 | 0.00 | 0.00 | 0.00 | 46 | 1004.5 |
| 20260504035715 | 11 | 180 | 8.0 | 9.7 | 0.00 | 0.00 | 0.00 | 46 | 1004.8 |
| 20260504034718 | 11 | 202 | 8.0 | 9.7 | 0.00 | 0.00 | 0.00 | 46 | 1005.2 |
| 20260504033816 | 11 | 202 | 8.0 | 11.3 | 0.00 | 0.00 | 0.00 | 46 | 1005.2 |
| 20260504031916 | 11 | 202 | 6.4 | 8.0 | 0.00 | 0.00 | 0.00 | 46 | 1005.5 |
| 20260504030916 | 11 | 202 | 6.4 | 8.0 | 0.00 | 0.00 | 0.00 | 45 | 1005.5 |
| 20260504025916 | 11 | 202 | 3.2 | 4.8 | 0.00 | 0.00 | 0.00 | 43 | 1005.5 |
| 20260504024916 | 11 | 202 | 4.8 | 6.4 | 0.00 | 0.00 | 0.00 | 45 | 1005.5 |
| 20260504023916 | 11 | 202 | 4.8 | 6.4 | 0.00 | 0.00 | 0.00 | 45 | 1005.5 |
| 20260504022917 | 12 | 202 | 6.4 | 8.0 | 0.00 | 0.00 | 0.00 | 44 | 1005.5 |
| 20260504021915 | 12 | 202 | 6.4 | 8.0 | 0.00 | 0.00 | 0.00 | 42 | 1005.5 |
| 20260504020916 | 12 | 225 | 4.8 | 8.0 | 0.00 | 0.00 | 0.00 | 40 | 1005.5 |
| 20260504014916 | 13 | 225 | 1.6 | 3.2 | 0.00 | 0.00 | 0.00 | 37 | 1004.8 |
| 20260504013015 | 14 | 225 | 3.2 | 6.4 | 0.00 | 0.00 | 0.00 | 34 | 1005.2 |
| 20260504012015 | 15 | 225 | 3.2 | 6.4 | 0.00 | 0.00 | 0.00 | 33 | 1004.8 |
| 20260504011015 | 16 | 247 | 4.8 | 6.4 | 0.00 | 0.00 | 0.00 | 30 | 1004.8 |
| 20260504010017 | 16 | 225 | 4.8 | 9.7 | 0.00 | 0.00 | 0.00 | 30 | 1004.5 |
| 20260504005116 | 17 | 247 | 4.8 | 8.0 | 0.00 | 0.00 | 0.00 | 28 | 1004.8 |
| 20260504004215 | 17 | 225 | 6.4 | 11.3 | 0.00 | 0.00 | 0.00 | 27 | 1004.5 |
| 20260504003217 | 17 | 247 | 3.2 | 8.0 | 0.00 | 0.00 | 0.00 | 27 | 1004.5 |
| 20260504002316 | 17 | 251 | 8.0 | 12.9 | 0.00 | 0.00 | 0.00 | 26 | 1004.5 |
| 20260504001315 | 17 | 270 | 9.7 | 14.5 | 0.00 | 0.00 | 0.00 | 25 | 1004.5 |
| 20260504000317 | 18 | 275 | 12.9 | 20.9 | 0.00 | 0.00 | 0.00 | 24 | 1004.5 |
| 20260503234317 | 18 | 280 | 11.3 | 17.7 | 0.00 | 0.00 | 0.00 | 25 | 1004.5 |
| 20260503233317 | 18 | 284 | 12.9 | 20.9 | 0.00 | 0.00 | 0.00 | 25 | 1004.7 |
| 20260503232317 | 18 | 284 | 12.9 | 16.1 | 0.00 | 0.00 | 0.00 | 24 | 1004.6 |
| 20260503230416 | 19 | 280 | 16.1 | 25.7 | 0.00 | 0.00 | 0.00 | 24 | 1004.5 |
| 20260503224417 | 19 | 246 | 11.3 | 19.3 | 0.00 | 0.00 | 0.00 | 22 | 1004.5 |
| 20260503223416 | 19 | 277 | 16.1 | 24.1 | 0.00 | 0.00 | 0.00 | 22 | 1004.5 |
| 20260503222415 | 19 | 306 | 11.3 | 19.3 | 0.00 | 0.00 | 0.00 | 25 | 1004.5 |
| 20260503215417 | 20 | 321 | 14.5 | 20.9 | 0.00 | 0.00 | 0.00 | 24 | 1004.5 |
| 20260503214416 | 20 | 327 | 19.3 | 27.4 | 0.00 | 0.00 | 0.00 | 23 | 1004.5 |
| 20260503212515 | 20 | 310 | 19.3 | 25.7 | 0.00 | 0.00 | 0.00 | 24 | 1004.5 |
| 20260503210517 | 20 | 308 | 12.9 | 19.3 | 0.00 | 0.00 | 0.00 | 25 | 1004.8 |
| 20260503205515 | 20 | 311 | 16.1 | 22.5 | 0.00 | 0.00 | 0.00 | 25 | 1004.5 |
| 20260503204515 | 20 | 311 | 16.1 | 24.1 | 0.00 | 0.00 | 0.00 | 25 | 1004.8 |
| 20260503203516 | 20 | 279 | 14.5 | 20.9 | 0.00 | 0.00 | 0.00 | 25 | 1004.8 |
| 20260503201515 | 19 | 282 | 19.3 | 25.7 | 0.00 | 0.00 | 0.00 | 22 | 1004.8 |
| 20260503195516 | 19 | 309 | 9.7 | 14.5 | 0.00 | 0.00 | 0.00 | 26 | 1005.2 |
| 20260503194515 | 19 | 309 | 9.7 | 14.5 | 0.00 | 0.00 | 0.00 | 26 | 1005.2 |
| 20260503193517 | 19 | 309 | 17.7 | 22.5 | 0.00 | 0.00 | 0.00 | 27 | 1005.2 |
| 20260503192515 | 18 | 294 | 17.7 | 24.1 | 0.00 | 0.00 | 0.00 | 26 | 1005.6 |
| 20260503191614 | 18 | 298 | 17.7 | 27.4 | 0.00 | 0.00 | 0.00 | 27 | 1005.5 |
| 20260503190615 | 18 | 299 | 16.1 | 25.7 | 0.00 | 0.00 | 0.00 | 27 | 1005.5 |
| 20260503185615 | 19 | 313 | 24.1 | 30.6 | 0.00 | 0.00 | 0.00 | 35 | 1005.2 |
| 20260503183617 | 18 | 294 | 11.3 | 27.4 | 0.00 | 0.00 | 0.00 | 37 | 1005.6 |
| 20260503182616 | 18 | 309 | 20.9 | 27.4 | 0.00 | 0.00 | 0.00 | 38 | 1005.5 |
| 20260503180616 | 18 | 318 | 20.9 | 27.4 | 0.00 | 0.00 | 0.00 | 38 | 1005.5 |
| 20260503175714 | 18 | 342 | 20.9 | 27.4 | 0.00 | 0.00 | 0.00 | 39 | 1005.9 |
| 20260503174814 | 18 | 355 | 20.9 | 27.4 | 0.00 | 0.00 | 0.00 | 36 | 1005.9 |
| 20260503173914 | 18 | 310 | 16.1 | 24.1 | 0.00 | 0.00 | 0.00 | 40 | 1005.9 |
| 20260503172917 | 18 | 312 | 14.5 | 24.1 | 0.00 | 0.00 | 0.00 | 40 | 1005.9 |
| 20260503172015 | 17 | 301 | 16.1 | 24.1 | 0.00 | 0.00 | 0.00 | 37 | 1005.9 |
| 20260503171016 | 18 | 312 | 16.1 | 24.1 | 0.00 | 0.00 | 0.00 | 38 | 1006.3 |
| 20260503170113 | 18 | 325 | 17.7 | 27.4 | 0.00 | 0.00 | 0.00 | 38 | 1006.3 |
| 20260503160217 | 17 | 335 | 12.9 | 16.1 | 0.00 | 0.00 | 0.00 | 43 | 1006.3 |
| 20260503150316 | 15 | 343 | 16.1 | 20.9 | 0.00 | 0.00 | 0.00 | 42 | 1006.6 |
| 20260503130517 | 12 | 225 | 9.7 | 14.5 | 0.00 | 0.00 | 0.00 | 55 | 1007.0 |
| 20260503110714 | 10 | 202 | 4.8 | 8.0 | 0.00 | 0.00 | 0.00 | 57 | 1007.0 |
| 20260503072816 | 11 | 180 | 11.3 | 14.5 | 0.00 | 0.00 | 0.00 | 54 | 1008.7 |
| 20260503070814 | 11 | 189 | 14.5 | 19.3 | 0.00 | 0.00 | 0.00 | 53 | 1009.0 |
| 20260503054916 | 12 | 169 | 9.7 | 16.1 | 0.00 | 0.00 | 0.00 | 52 | 1009.7 |
| 20260503053917 | 12 | 180 | 8.0 | 12.9 | 0.00 | 0.00 | 0.00 | 51 | 1009.7 |
| 20260503051914 | 12 | 157 | 8.0 | 11.3 | 0.00 | 0.00 | 0.00 | 52 | 1010.1 |
| 20260503050932 | 12 | 180 | 6.4 | 11.3 | 0.00 | 0.00 | 0.00 | 51 | 1010.1 |